475P/Spacewatch-LINEAR (2004)

Japanese version
Home page
Updated on February 21, 2024

---------------------------------------------------------------------

* Profile

Designation 475P/2004 DO29
Discovery Date February 17, 2004
Magnitude 19.8 mag, 19.4 mag
Discoverer A. E. Gleason (Steward Observatory, Kitt Peak), Lincoln Laboratory Near-Earth Asteroid Research project

* Orbital Elements

                    Epoch = 2004 Oct.  2.0 TT
     T = 2004 Oct.  9.28443 TT        Peri. =  41.58759
     e = 0.4495120                    Node  = 147.77741 2000.0
     q = 4.0968279 AU                 Incl. =  14.49558
       a =  7.4421753 AU   n = 0.04854609   P =  20.30 years

* Finding Charts

* Magnitudes Graph

        m1 = 10.0 + 5 log d + 10.0 log r

---------------------------------------------------------------------

The orbital elements are printed on CBET 5335.
The charts are made with StellaNavigator Ver.2.0 for Windows (AstroArts / ASCII).
The magnitudes graphs are made with Comet for Windows.

---------------------------------------------------------------------

Copyright(C) Seiichi Yoshida (comet@aerith.net). All rights reserved.